IK2ILW-4 Weather Reports


time (UTC)temp
C
wind
direction
speed
KPH
gust
KPH
rain 1hr
cm
rain 24hr
cm
rain mn
cm
humidity
%
barometer
mb
20260902175752 19 301 0.0 0.0 0.00 0.00 0.00 73 1023.4
20260902175243 19 302 0.0 0.0 0.00 0.00 0.00 72 1023.4
20260902174753 20 300 0.0 0.0 0.00 0.00 0.00 72 1023.4
20260902174245 20 293 0.0 0.0 0.00 0.00 0.00 72 1023.3
20260902173744 20 335 0.0 0.0 0.00 0.00 0.00 71 1023.3
20260902173253 20 295 0.0 0.0 0.00 0.00 0.00 71 1023.3
20260902172743 20 296 0.0 0.0 0.00 0.00 0.00 71 1023.3
20260902172239 20 302 0.0 0.0 0.00 0.00 0.00 70 1023.3
20260902171752 20 299 0.0 0.0 0.00 0.00 0.00 71 1023.3
20260902171250 20 276 0.0 0.0 0.00 0.00 0.00 70 1023.4
20260902170745 20 297 0.0 0.0 0.00 0.00 0.00 69 1023.4
20260902170235 21 305 0.0 0.0 0.00 0.00 0.00 69 1023.4
20260902165753 21 290 0.0 0.0 0.00 0.00 0.00 69 1023.3
20260902165251 21 258 0.0 0.0 0.00 0.00 0.00 69 1023.3
20260902164754 21 252 0.0 0.0 0.00 0.00 0.00 68 1023.3
20260902164251 21 265 0.0 0.0 0.00 0.00 0.00 68 1023.2
20260902163749 21 266 0.0 0.0 0.00 0.00 0.00 67 1023.2
20260902163253 21 288 0.0 0.0 0.00 0.00 0.00 67 1023.2
20260902162739 21 277 0.0 0.0 0.00 0.00 0.00 66 1023.1
20260902162238 22 261 0.0 0.0 0.00 0.00 0.00 65 1023.1
20260902161736 22 205 0.0 0.0 0.00 0.00 0.00 63 1023.1
20260902161250 22 277 0.0 0.0 0.00 0.00 0.00 63 1023.1
20260902160744 22 254 0.0 0.0 0.00 0.00 0.00 63 1023.1
20260902160252 22 273 0.0 0.0 0.00 0.00 0.00 64 1023.1
20260902155734 22 262 0.0 0.0 0.00 0.00 0.00 64 1023.1
20260902155245 22 257 0.0 0.0 0.00 0.00 0.00 62 1023.1
20260902154752 22 250 0.0 0.0 0.00 0.00 0.00 63 1023.1
20260902154242 22 256 0.0 0.0 0.00 0.00 0.00 62 1023.2
20260902153741 22 274 0.0 0.0 0.00 0.00 0.00 61 1023.2
20260902153246 23 259 0.0 0.0 0.00 0.00 0.00 60 1023.2
20260902152753 23 264 0.0 0.0 0.00 0.00 0.00 59 1023.2
20260902152244 23 226 0.0 0.0 0.00 0.00 0.00 61 1023.2
20260902151733 22 251 0.0 0.0 0.00 0.00 0.00 62 1023.2
20260902151251 22 257 0.0 0.0 0.00 0.00 0.00 63 1023.2
20260902150735 22 276 0.0 0.0 0.00 0.00 0.00 62 1023.2
20260902150236 22 248 0.0 0.0 0.00 0.00 0.00 61 1023.2
20260902145751 22 258 0.0 0.0 0.00 0.00 0.00 63 1023.3
20260902145243 22 271 0.0 0.0 0.00 0.00 0.00 61 1023.3
20260902144750 22 285 0.0 0.0 0.00 0.00 0.00 60 1023.3
20260902144235 22 241 0.0 0.0 0.00 0.00 0.00 61 1023.3
20260902143747 22 272 0.0 0.0 0.00 0.00 0.00 60 1023.3
20260902143253 22 240 0.0 0.0 0.00 0.00 0.00 62 1023.3
20260902142750 22 250 0.0 0.0 0.00 0.00 0.00 62 1023.6
20260902142237 22 261 0.0 0.0 0.00 0.00 0.00 63 1023.6
20260902141737 22 307 0.0 0.0 0.00 0.00 0.00 62 1023.6
20260902141252 22 256 0.0 0.0 0.00 0.00 0.00 64 1023.7
20260902140743 22 255 0.0 0.0 0.00 0.00 0.00 62 1023.7
20260902140249 22 258 0.0 0.0 0.00 0.00 0.00 64 1023.7
20260902135740 22 243 0.0 0.0 0.00 0.00 0.00 64 1023.7
20260902135236 22 248 0.0 0.0 0.00 0.00 0.00 64 1023.7
20260902134733 22 249 0.0 0.0 0.00 0.00 0.00 63 1023.7
20260902134249 22 247 0.0 0.0 0.00 0.00 0.00 64 1023.7
20260902133752 22 277 0.0 0.0 0.00 0.00 0.00 62 1023.7
20260902133255 22 245 0.0 0.0 0.00 0.00 0.00 61 1023.7
20260902132751 22 244 0.0 0.0 0.00 0.00 0.00 62 1023.9
20260902132234 22 255 0.0 0.0 0.00 0.00 0.00 65 1023.9
20260902131739 21 300 0.0 0.0 0.00 0.00 0.00 66 1023.9
20260902131237 21 260 0.0 0.0 0.00 0.00 0.00 65 1023.9
20260902130734 21 275 0.0 0.0 0.00 0.00 0.00 66 1023.9
20260902130232 21 278 0.0 0.0 0.00 0.00 0.00 65 1023.9
20260902125752 21 225 0.0 0.0 0.00 0.00 0.00 66 1024.1
20260902125236 22 264 0.0 0.0 0.00 0.00 0.00 64 1024.1
20260902124737 21 269 0.0 0.0 0.00 0.00 0.00 67 1024.1
20260902124252 21 278 0.0 0.0 0.00 0.00 0.00 65 1024.2
20260902123743 21 236 0.0 0.0 0.00 0.00 0.00 66 1024.2
20260902123253 22 281 0.0 0.0 0.00 0.00 0.00 66 1024.2
20260902122744 22 270 0.0 0.0 0.00 0.00 0.00 65 1024.3
20260902122243 21 195 0.0 0.0 0.00 0.00 0.00 67 1024.3
20260902121750 21 259 0.0 0.0 0.00 0.00 0.00 67 1024.3
20260902121252 21 252 0.0 0.0 0.00 0.00 0.00 70 1024.4
20260902120741 20 211 0.0 0.0 0.00 0.00 0.00 69 1024.4
20260902120248 20 269 0.0 0.0 0.00 0.00 0.00 70 1024.4
20260902115733 20 255 0.0 0.0 0.00 0.00 0.00 71 1024.3
20260902115242 20 243 0.0 0.0 0.00 0.00 0.00 71 1024.3
20260902114750 20 252 0.0 0.0 0.00 0.00 0.00 71 1024.3
20260902114242 20 255 0.0 0.0 0.00 0.00 0.00 69 1024.4
20260902113738 20 246 0.0 0.0 0.00 0.00 0.00 68 1024.4
20260902113248 20 254 0.0 0.0 0.00 0.00 0.00 67 1024.4
20260902112742 20 221 0.0 0.0 0.00 0.00 0.00 68 1024.5
20260902112239 20 240 0.0 0.0 0.00 0.00 0.00 68 1024.5
20260902111736 20 232 0.0 0.0 0.00 0.00 0.00 66 1024.5
20260902111252 21 242 0.0 0.0 0.00 0.00 0.00 66 1024.6
20260902110751 21 282 0.0 0.0 0.00 0.00 0.00 69 1024.6
20260902110237 20 265 0.0 0.0 0.00 0.00 0.00 68 1024.6
20260902105739 20 207 0.0 0.0 0.00 0.00 0.00 67 1024.9
20260902105238 20 226 0.0 0.0 0.00 0.00 0.00 68 1024.9
20260902104736 20 169 0.0 0.0 0.00 0.00 0.00 68 1024.9
20260902104249 20 236 0.0 0.0 0.00 0.00 0.00 72 1024.9
20260902103744 19 238 0.0 0.0 0.00 0.00 0.00 75 1024.9
20260902103251 20 108 0.0 0.0 0.00 0.00 0.00 75 1024.9
20260902102748 20 142 0.0 0.0 0.00 0.00 0.00 74 1024.9
20260902102245 20 125 0.0 0.0 0.00 0.00 0.00 73 1024.9
20260902101732 20 126 0.0 0.0 0.00 0.00 0.00 72 1024.9
20260902101253 21 127 0.0 0.0 0.00 0.00 0.00 70 1025.1
20260902100747 21 146 0.0 0.0 0.00 0.00 0.00 70 1025.1
20260902100254 20 193 0.0 0.0 0.00 0.00 0.00 72 1025.1
20260902095740 20 186 0.0 0.0 0.00 0.00 0.00 70 1024.9
20260902095237 20 167 0.0 0.0 0.00 0.00 0.00 72 1024.9
20260902094734 20 247 0.0 0.0 0.00 0.00 0.00 74 1024.9
20260902094232 20 244 0.0 0.0 0.00 0.00 0.00 74 1025.1
20260902093747 20 225 0.0 0.0 0.00 0.00 0.00 75 1025.1
20260902093253 20 226 0.0 0.0 0.00 0.00 0.00 76 1025.1
20260902092737 19 229 0.0 0.0 0.00 0.00 0.00 77 1025.2
20260902092236 19 242 0.0 0.0 0.00 0.00 0.00 77 1025.2
20260902091744 18 242 0.0 0.0 0.00 0.00 0.00 78 1025.2
20260902091234 18 242 0.0 0.0 0.00 0.00 0.00 79 1025.3
20260902090752 18 242 0.0 0.0 0.00 0.00 0.00 80 1025.3
20260902090236 18 242 0.0 0.0 0.00 0.00 0.00 80 1025.3
20260902085747 18 242 0.0 0.0 0.00 0.00 0.00 79 1025.3
20260902085245 18 247 0.0 0.0 0.00 0.00 0.00 79 1025.3
20260902084754 18 240 0.0 0.0 0.00 0.00 0.00 80 1025.3
20260902084250 18 153 0.0 0.0 0.00 0.00 0.00 81 1025.2
20260902083748 17 96 0.0 0.0 0.00 0.00 0.00 81 1025.2
20260902083233 17 96 0.0 0.0 0.00 0.00 0.00 80 1025.2
20260902082749 18 96 0.0 0.0 0.00 0.00 0.00 82 1025.1
20260902082236 17 96 0.0 0.0 0.00 0.00 0.00 80 1025.1
20260902081744 18 275 0.0 0.0 0.00 0.00 0.00 79 1025.1
20260902081233 18 276 0.0 0.0 0.00 0.00 0.00 78 1024.9
20260902080748 18 276 0.0 0.0 0.00 0.00 0.00 76 1024.9
20260902080234 19 276 0.0 0.0 0.00 0.00 0.00 78 1024.9
20260902075749 18 276 0.0 0.0 0.00 0.00 0.00 77 1025.0
20260902075249 18 276 0.0 0.0 0.00 0.00 0.00 78 1025.0
20260902074754 18 276 0.0 0.0 0.00 0.00 0.00 78 1025.0
20260902074240 18 276 0.0 0.0 0.00 0.00 0.00 78 1024.9
20260902073735 18 322 0.0 0.0 0.00 0.00 0.00 78 1024.9
20260902073246 18 322 0.0 0.0 0.00 0.00 0.00 79 1024.9
20260902072735 18 323 0.0 0.0 0.00 0.00 0.00 79 1025.0
20260902072251 18 323 0.0 0.0 0.00 0.00 0.00 80 1025.0
20260902071735 17 322 0.0 0.0 0.00 0.00 0.00 80 1025.0
20260902071247 17 322 0.0 0.0 0.00 0.00 0.00 80 1024.8
20260902070744 17 322 0.0 0.0 0.00 0.00 0.00 80 1024.8
20260902070235 17 297 0.0 0.0 0.00 0.00 0.00 80 1024.8
20260902065745 17 295 0.0 0.0 0.00 0.00 0.00 79 1024.6
20260902065242 17 295 0.0 0.0 0.00 0.00 0.00 80 1024.6
20260902064748 17 295 0.0 0.0 0.00 0.00 0.00 80 1024.6
20260902064235 17 295 0.0 0.0 0.00 0.00 0.00 81 1024.6
20260902063744 17 295 0.0 0.0 0.00 0.00 0.00 82 1024.6
20260902063234 17 295 0.0 0.0 0.00 0.00 0.00 82 1024.6
20260902062749 17 295 0.0 0.0 0.00 0.00 0.00 82 1024.7
20260902062247 17 295 0.0 0.0 0.00 0.00 0.00 83 1024.7
20260902061754 16 295 0.0 0.0 0.00 0.00 0.00 84 1024.7
20260902061250 16 292 0.0 0.0 0.00 0.00 0.00 85 1024.8
20260902060747 16 292 0.0 0.0 0.00 0.00 0.00 84 1024.8
20260902060252 16 292 0.0 0.0 0.00 0.00 0.00 85 1024.8
20260902055736 16 271 0.0 0.0 0.00 0.00 0.00 85 1024.7
20260902055236 16 271 0.0 0.0 0.00 0.00 0.00 86 1024.7
20260902054742 16 271 0.0 0.0 0.00 0.00 0.00 85 1024.7
20260902054241 16 271 0.0 0.0 0.00 0.00 0.00 85 1024.6
20260902053736 16 271 0.0 0.0 0.00 0.00 0.00 85 1024.6
20260902053236 16 271 0.0 0.0 0.00 0.00 0.00 85 1024.6
20260902052748 16 271 0.0 0.0 0.00 0.00 0.00 85 1024.5
20260902052245 16 271 0.0 0.0 0.00 0.00 0.00 85 1024.5
20260902051735 16 271 0.0 0.0 0.00 0.00 0.00 85 1024.5
20260902051248 16 271 0.0 0.0 0.00 0.00 0.00 85 1024.3
20260902050744 16 271 0.0 0.0 0.00 0.00 0.00 85 1024.3
20260902050251 16 271 0.0 0.0 0.00 0.00 0.00 85 1024.3
20260902045752 16 271 0.0 0.0 0.00 0.00 0.00 84 1024.2
20260902045241 16 271 0.0 0.0 0.00 0.00 0.00 85 1024.2
20260902044748 16 271 0.0 0.0 0.00 0.00 0.00 84 1024.2
20260902044239 16 271 0.0 0.0 0.00 0.00 0.00 84 1024.1
20260902043734 16 290 0.0 0.0 0.00 0.00 0.00 84 1024.1
20260902043247 16 290 0.0 0.0 0.00 0.00 0.00 84 1024.1
20260902042742 16 290 0.0 0.0 0.00 0.00 0.00 84 1024.0
20260902035242 16 290 0.0 0.0 0.00 0.00 0.00 84 1024.0
20260902034750 16 290 0.0 0.0 0.00 0.00 0.00 84 1024.0
20260902034242 16 290 0.0 0.0 0.00 0.00 0.00 84 1024.1
20260902033739 16 290 0.0 0.0 0.00 0.00 0.00 84 1024.1
20260902033235 16 290 0.0 0.0 0.00 0.00 0.00 84 1024.1
20260902032751 16 290 0.0 0.0 0.00 0.00 0.00 83 1024.2
20260902032239 16 290 0.0 0.0 0.00 0.00 0.00 84 1024.2
20260902031737 16 290 0.0 0.0 0.00 0.00 0.00 83 1024.2
20260902031248 16 290 0.0 0.0 0.00 0.00 0.00 84 1024.2
20260902030743 16 290 0.0 0.0 0.00 0.00 0.00 84 1024.2
20260902030249 16 290 0.0 0.0 0.00 0.00 0.00 85 1024.2
20260902025751 16 290 0.0 0.0 0.00 0.00 0.00 85 1024.4
20260902025244 16 290 0.0 0.0 0.00 0.00 0.00 84 1024.4
20260902024732 16 290 0.0 0.0 0.00 0.00 0.00 82 1024.4
20260902024251 16 290 0.0 0.0 0.00 0.00 0.00 84 1024.3
20260902023740 16 290 0.0 0.0 0.00 0.00 0.00 84 1024.3
20260902023249 16 290 0.0 0.0 0.00 0.00 0.00 84 1024.3
20260902022741 16 290 0.0 0.0 0.00 0.00 0.00 84 1024.4
20260902022239 16 290 0.0 0.0 0.00 0.00 0.00 83 1024.4
20260902021750 16 290 0.0 0.0 0.00 0.00 0.00 82 1024.4
20260902021247 16 290 0.0 0.0 0.00 0.00 0.00 82 1024.3
20260902020744 16 290 0.0 0.0 0.00 0.00 0.00 82 1024.3
20260902020235 16 290 0.0 0.0 0.00 0.00 0.00 82 1024.3
20260902015747 17 290 0.0 0.0 0.00 0.00 0.00 82 1024.3
20260902015237 17 290 0.0 0.0 0.00 0.00 0.00 82 1024.3
20260902014735 17 290 0.0 0.0 0.00 0.00 0.00 82 1024.3
20260902014249 16 290 0.0 0.0 0.00 0.00 0.00 82 1024.4
20260902013748 16 290 0.0 0.0 0.00 0.00 0.00 83 1024.4
20260902013236 16 290 0.0 0.0 0.00 0.00 0.00 83 1024.4
20260902012746 16 290 0.0 0.0 0.00 0.00 0.00 84 1024.5
20260902012235 16 290 0.0 0.0 0.00 0.00 0.00 84 1024.5
20260902011733 16 290 0.0 0.0 0.00 0.00 0.00 83 1024.5
20260902011241 16 290 0.0 0.0 0.00 0.00 0.00 83 1024.4
20260902010730 16 290 0.0 0.0 0.00 0.00 0.00 83 1024.4
20260902010238 16 290 0.0 0.0 0.00 0.00 0.00 83 1024.4
20260901235242 17 290 0.0 0.0 0.00 0.00 0.00 83 1024.4
20260901234753 17 290 0.0 0.0 0.00 0.00 0.00 83 1024.4
20260901234252 17 290 0.0 0.0 0.00 0.00 0.00 82 1024.5
20260901233743 17 290 0.0 0.0 0.00 0.00 0.00 82 1024.5
20260901233253 17 290 0.0 0.0 0.00 0.00 0.00 82 1024.5
20260901232752 17 289 0.0 0.0 0.00 0.00 0.00 82 1024.4
20260901232250 17 289 0.0 0.0 0.00 0.00 0.00 82 1024.4
20260901231736 17 266 0.0 0.0 0.00 0.00 0.00 81 1024.4
20260901231243 17 252 0.0 0.0 0.00 0.00 0.00 80 1024.5
20260901230735 17 251 0.0 0.0 0.00 0.00 0.00 80 1024.5
20260901230235 17 237 0.0 0.0 0.00 0.00 0.00 80 1024.5
20260901225751 17 215 0.0 0.0 0.00 0.00 0.00 80 1024.5
20260901225240 17 214 0.0 0.0 0.00 0.00 0.00 80 1024.5
20260901224751 17 214 0.0 0.0 0.00 0.00 0.00 80 1024.5
20260901224240 17 204 0.0 0.0 0.00 0.00 0.00 80 1024.5
20260901223739 17 204 0.0 0.0 0.00 0.00 0.00 81 1024.5
20260901223246 17 205 0.0 0.0 0.00 0.00 0.00 81 1024.5
20260901222733 17 205 0.0 0.0 0.00 0.00 0.00 82 1024.6
20260901222252 17 205 0.0 0.0 0.00 0.00 0.00 81 1024.6
20260901221737 17 162 0.0 0.0 0.00 0.00 0.00 81 1024.6
20260901221250 17 160 0.0 0.0 0.00 0.00 0.00 81 1024.8
20260901220735 17 160 0.0 0.0 0.00 0.00 0.00 81 1024.8
20260901220233 17 120 0.0 0.0 0.00 0.00 0.00 81 1024.8
20260901215749 17 118 0.0 0.0 0.00 0.00 0.00 81 1024.8
20260901215241 17 118 0.0 0.0 0.00 0.00 0.00 81 1024.8
20260901214748 17 118 0.0 0.0 0.00 0.00 0.00 81 1024.8
20260901214233 17 77 0.0 0.0 0.00 0.00 0.00 80 1024.7
20260901213747 17 77 0.0 0.0 0.00 0.00 0.00 80 1024.7
20260901213253 17 77 0.0 0.0 0.00 0.00 0.00 79 1024.7
20260901212743 17 75 0.0 0.0 0.00 0.00 0.00 80 1024.7
20260901212240 17 75 0.0 0.0 0.00 0.00 0.00 80 1024.7
20260901211737 17 75 0.0 0.0 0.00 0.00 0.00 80 1024.7
20260901211235 17 75 0.0 0.0 0.00 0.00 0.00 79 1024.7
20260901210748 17 75 0.0 0.0 0.00 0.00 0.00 79 1024.7
20260901210236 17 75 0.0 0.0 0.00 0.00 0.00 79 1024.7
20260901205753 17 75 0.0 0.0 0.00 0.00 0.00 79 1024.8
20260901205247 17 75 0.0 0.0 0.00 0.00 0.00 80 1024.8
20260901204753 17 75 0.0 0.0 0.00 0.00 0.00 80 1024.8
20260901204237 17 75 0.0 0.0 0.00 0.00 0.00 80 1024.8
20260901203748 17 75 0.0 0.0 0.00 0.00 0.00 81 1024.8
20260901203257 17 75 0.0 0.0 0.00 0.00 0.00 80 1024.8
20260901202751 17 75 0.0 0.0 0.00 0.00 0.00 80 1024.6
20260901202247 17 75 0.0 0.0 0.00 0.00 0.00 80 1024.6
20260901201755 17 75 0.0 0.0 0.00 0.00 0.00 80 1024.6
20260901201249 17 75 0.0 0.0 0.00 0.00 0.00 80 1024.8
20260901200742 17 75 0.0 0.0 0.00 0.00 0.00 80 1024.8
20260901200250 17 75 0.0 0.0 0.00 0.00 0.00 80 1024.8
20260901195732 17 75 0.0 0.0 0.00 0.00 0.00 80 1024.6
20260901195248 17 75 0.0 0.0 0.00 0.00 0.00 80 1024.6
20260901194744 17 75 0.0 0.0 0.00 0.00 0.00 80 1024.6
20260901194239 17 75 0.0 0.0 0.00 0.00 0.00 80 1024.5
20260901193739 17 75 0.0 0.0 0.00 0.00 0.00 80 1024.5
20260901193236 17 75 0.0 0.0 0.00 0.00 0.00 79 1024.5
20260901192751 17 75 0.0 0.0 0.00 0.00 0.00 79 1024.4
20260901192236 17 75 0.0 0.0 0.00 0.00 0.00 79 1024.4
20260901191738 17 75 0.0 0.0 0.00 0.00 0.00 78 1024.4
20260901191252 17 75 0.0 0.0 0.00 0.00 0.00 78 1024.5
20260901190753 17 75 0.0 0.0 0.00 0.00 0.00 78 1024.5
20260901190255 17 75 0.0 0.0 0.00 0.00 0.00 78 1024.5
20260901185753 17 75 0.0 0.0 0.00 0.00 0.00 78 1024.3
20260901185243 17 75 0.0 0.0 0.00 0.00 0.00 78 1024.3
20260901184752 17 75 0.0 0.0 0.00 0.00 0.00 78 1024.3
20260901184249 18 75 0.0 0.0 0.00 0.00 0.00 78 1024.4
20260901183747 18 75 0.0 0.0 0.00 0.00 0.00 78 1024.4
20260901183253 18 75 0.0 0.0 0.00 0.00 0.00 78 1024.4
20260901182748 18 75 0.0 0.0 0.00 0.00 0.00 77 1024.1
20260901182240 18 75 0.0 0.0 0.00 0.00 0.00 77 1024.1
20260901181747 18 75 0.0 0.0 0.00 0.00 0.00 76 1024.1
20260901181231 18 75 0.0 0.0 0.00 0.00 0.00 76 1024.1
20260901180748 18 75 0.0 0.0 0.00 0.00 0.00 76 1024.1
20260901180255 18 77 0.0 0.0 0.00 0.00 0.00 76 1024.1